Weather History for Keene, NH

Change the Weather History Date:

Sunday, January 27, 2013

  Actual Average Record
Temperature  
Mean Temperature 12 °F -  
Max Temperature 26 °F 34 °F 60 °F (1974)
Min Temperature -2 °F 11 °F -25 °F (1994)
Degree Days  
Heating Degree Days 53    
Moisture  
Dew Point -2 °F    
Average Humidity 61    
Maximum Humidity 92    
Minimum Humidity 26    
Precipitation  
Precipitation 0.00 in - - ()
Sea Level Pressure  
Sea Level Pressure 30.38 in    
Wind  
Wind Speed 3 mph (NNW)    
Max Wind Speed 14 mph    
Max Gust Speed 21 mph    
Visibility 10 miles    
Events      
Averages and records for this station are not official NWS values.
T = Trace of Precipitation, MM = Missing Value Source: NWS Daily Summary

Daily Weather History Graph

Daily Weather History Graph

Search for Another Location

Airport:

Trip Planner

Search our weather history database for the weather conditions in past years. The results will help you decide how hot, cold, wet, or windy it might be!

Date:

Astronomy

Jan. 27, 2013 Rise Set
Actual Time 7:08 AM EST 4:55 PM EST
Civil Twilight 6:38 AM EST 5:26 PM EST
Nautical Twilight 6:03 AM EST 6:00 PM EST
Astronomical Twilight 5:30 AM EST 6:33 PM EST
Moon 5:49 PM EST (1/27) 6:57 AM EST (1/27)
Length of Visible Light 10h 47m
Length of Day
9h 47m
Full, 100% of the Moon is Illuminated
Jan 27
Full
Feb 3
Last Quarter
Feb 10
New
Feb 17
First Quarter
Feb 25
Full

Hourly Weather History & Observations

Time (EST) Temp. Windchill Dew Point Humidity Pressure Visibility Wind Dir Wind Speed Gust Speed Precip Events Conditions
12:15 AM 6.8 °F -0.1 °F -2.2 °F 67% 30.24 in 10.0 mi SW 3.5 mph - N/A   Clear
12:35 AM 5.0 °F - -2.2 °F 72% 30.24 in 10.0 mi Calm Calm - N/A   Clear
12:55 AM 1.4 °F -6.2 °F -5.8 °F 72% 30.24 in 10.0 mi SSW 3.5 mph - N/A   Clear
1:15 AM 3.2 °F - -0.4 °F 85% 30.25 in 10.0 mi Calm Calm - N/A   Clear
1:55 AM 1.4 °F -8.3 °F -4.0 °F 78% 30.27 in 10.0 mi SSW 4.6 mph - N/A   Clear
2:15 AM 1.4 °F - -2.2 °F 85% 30.27 in 10.0 mi Calm Calm - N/A   Clear
2:35 AM 3.2 °F - -2.2 °F 78% 30.27 in 10.0 mi Calm Calm - N/A   Clear
2:55 AM -0.4 °F -8.3 °F -5.8 °F 78% 30.27 in 10.0 mi South 3.5 mph - N/A   Clear
3:15 AM -0.4 °F - -5.8 °F 78% 30.28 in 10.0 mi Calm Calm - N/A   Clear
3:35 AM -0.4 °F -8.3 °F -5.8 °F 78% 30.28 in 10.0 mi SSW 3.5 mph - N/A   Clear
4:15 AM -0.4 °F - -4.0 °F 85% 30.29 in 10.0 mi Calm Calm - N/A   Clear
4:35 AM -2.2 °F - -5.8 °F 85% 30.29 in 10.0 mi Calm Calm - N/A   Clear
4:55 AM -0.4 °F -8.3 °F -5.8 °F 78% 30.30 in 10.0 mi SSW 3.5 mph - N/A   Clear
5:15 AM -2.2 °F - -7.6 °F 78% 30.30 in 10.0 mi Calm Calm - N/A   Clear
5:35 AM -0.4 °F -10.4 °F -5.8 °F 78% 30.31 in 10.0 mi SSW 4.6 mph - N/A   Clear
5:55 AM -0.4 °F - -5.8 °F 78% 30.32 in 10.0 mi Calm Calm - N/A   Clear
6:15 AM -2.2 °F - -5.8 °F 85% 30.33 in 10.0 mi Calm Calm - N/A   Clear
6:55 AM -2.2 °F - -7.6 °F 78% 30.34 in 10.0 mi Calm Calm - N/A   Clear
7:15 AM -2.2 °F - -5.8 °F 85% 30.35 in 10.0 mi Calm Calm - N/A   Clear
7:35 AM -0.4 °F -8.3 °F -4.0 °F 85% 30.37 in 10.0 mi South 3.5 mph - N/A   Clear
7:55 AM -0.4 °F -8.3 °F -5.8 °F 78% 30.38 in 10.0 mi South 3.5 mph - N/A   Clear
8:15 AM -0.4 °F - -2.2 °F 92% 30.38 in 10.0 mi Calm Calm - N/A   Clear
8:35 AM 1.4 °F - -2.2 °F 85% 30.38 in 10.0 mi Calm Calm - N/A   Clear
9:15 AM 6.8 °F - 3.2 °F 85% 30.40 in 10.0 mi Calm Calm - N/A   Clear
9:35 AM 12.2 °F 4.3 °F 6.8 °F 79% 30.40 in 10.0 mi NNE 4.6 mph - N/A   Clear
9:55 AM 15.8 °F 5.1 °F 5.0 °F 62% 30.41 in 10.0 mi North 8.1 mph - N/A   Clear
10:15 AM 17.6 °F 7.3 °F 1.4 °F 49% 30.41 in 10.0 mi North 8.1 mph - N/A   Clear
10:35 AM 17.6 °F 4.3 °F 1.4 °F 49% 30.42 in 10.0 mi North 12.7 mph - N/A   Clear
10:55 AM 19.4 °F 6.0 °F 1.4 °F 46% 30.43 in 10.0 mi North 13.8 mph 18.4 mph N/A   Clear
11:16 AM 19.4 °F 7.9 °F -0.4 °F 42% 30.42 in 10.0 mi North 10.4 mph - N/A   Clear
11:55 AM 21.2 °F 11.7 °F -0.4 °F 39% 30.41 in 10.0 mi North 8.1 mph - N/A   Clear
12:15 PM 21.2 °F 13.6 °F -0.4 °F 39% 30.40 in 10.0 mi North 5.8 mph - N/A   Clear
12:35 PM 23.0 °F 14.7 °F -0.4 °F 36% 30.40 in 10.0 mi NNW 6.9 mph - N/A   Clear
12:55 PM 24.8 °F 13.4 °F -2.2 °F 31% 30.40 in 10.0 mi NNW 12.7 mph 20.7 mph N/A   Clear
1:15 PM 24.8 °F 16.1 °F -2.2 °F 31% 30.40 in 10.0 mi North 8.1 mph - N/A   Clear
1:35 PM 24.8 °F 16.9 °F -2.2 °F 31% 30.39 in 10.0 mi NNW 6.9 mph - N/A   Clear
1:55 PM 24.8 °F 14.0 °F -2.2 °F 31% 30.39 in 10.0 mi North 11.5 mph 16.1 mph N/A   Clear
2:15 PM 26.6 °F 15.2 °F -2.2 °F 29% 30.40 in 10.0 mi North 13.8 mph 19.6 mph N/A   Clear
2:35 PM 26.6 °F 16.8 °F -2.2 °F 29% 30.40 in 10.0 mi North 10.4 mph - N/A   Clear
2:55 PM 26.6 °F 17.5 °F -2.2 °F 29% 30.39 in 10.0 mi North 9.2 mph - N/A   Clear
3:15 PM 26.6 °F 17.5 °F -2.2 °F 29% 30.40 in 10.0 mi North 9.2 mph - N/A   Clear
3:35 PM 26.6 °F 16.8 °F -2.2 °F 29% 30.40 in 10.0 mi North 10.4 mph - N/A   Clear
3:55 PM 24.8 °F 14.0 °F -4.0 °F 28% 30.40 in 10.0 mi North 11.5 mph - N/A   Clear
4:15 PM 24.8 °F 14.6 °F -5.8 °F 26% 30.41 in 10.0 mi North 10.4 mph - N/A   Clear
4:35 PM 24.8 °F 17.9 °F -4.0 °F 28% 30.42 in 10.0 mi North 5.8 mph - N/A   Clear
5:15 PM 23.0 °F 15.8 °F -5.8 °F 28% 30.43 in 10.0 mi North 5.8 mph - N/A   Clear
5:35 PM 21.2 °F - -4.0 °F 33% 30.43 in 10.0 mi Calm Calm - N/A   Clear
5:55 PM 19.4 °F - -4.0 °F 36% 30.43 in 10.0 mi Calm Calm - N/A   Clear
6:15 PM 15.8 °F - -4.0 °F 41% 30.44 in 10.0 mi Calm Calm - N/A   Clear
6:35 PM 15.8 °F - -0.4 °F 49% 30.44 in 10.0 mi Calm Calm - N/A   Clear
6:55 PM 14.0 °F - -0.4 °F 53% 30.44 in 10.0 mi Calm Calm - N/A   Clear
7:15 PM 12.2 °F - 1.4 °F 62% 30.44 in 10.0 mi Calm Calm - N/A   Clear
7:35 PM 12.2 °F - 1.4 °F 62% 30.45 in 10.0 mi Calm Calm - N/A   Clear
7:55 PM 12.2 °F - 1.4 °F 62% 30.45 in 10.0 mi Calm Calm - N/A   Clear
8:15 PM 10.4 °F - -0.4 °F 62% 30.43 in 10.0 mi Calm Calm - N/A   Clear
8:35 PM 10.4 °F - 1.4 °F 67% 30.43 in 10.0 mi Calm Calm - N/A   Clear
8:55 PM 8.6 °F - -0.4 °F 67% 30.43 in 10.0 mi Calm Calm - N/A   Clear
9:15 PM 10.4 °F 4.0 °F 1.4 °F 67% 30.44 in 10.0 mi South 3.5 mph - N/A   Clear
9:35 PM - - - N/A% 30.43 in 10.0 mi Calm Calm - N/A   Clear
9:55 PM 8.6 °F - 1.4 °F 73% 30.44 in 10.0 mi Calm Calm - N/A   Clear
10:35 PM 8.6 °F - 1.4 °F 73% 30.45 in 10.0 mi Calm Calm - N/A   Clear
10:55 PM 6.8 °F - 1.4 °F 79% 30.46 in 10.0 mi Calm Calm - N/A   Clear
11:15 PM 6.8 °F - 1.4 °F 79% 30.45 in 10.0 mi Calm Calm - N/A   Clear
11:35 PM 5.0 °F -2.1 °F -0.4 °F 78% 30.45 in 10.0 mi SSW 3.5 mph - N/A   Clear
11:55 PM 6.8 °F - 3.2 °F 85% 30.44 in 10.0 mi Calm Calm - N/A   Clear